EW9530 Weather Reports


time (UTC)temp
C
wind
direction
speed
KPH
gust
KPH
rain 1hr
cm
rain 24hr
cm
rain mn
cm
humidity
%
barometer
mb
20260510090151 14 327 0.0 0.0 0.00 0.79 0.00 93 1014.4
20260510084652 13 284 0.0 0.0 0.00 0.79 0.00 95 1014.5
20260510083137 12 284 0.0 1.6 0.00 0.79 0.00 95 1014.6
20260510081651 12 50 0.0 0.0 0.00 0.79 0.00 96 1014.7
20260510080149 12 50 0.0 0.0 0.00 0.79 0.00 96 1014.6
20260510074651 11 50 0.0 0.0 0.00 0.79 0.00 96 1014.6
20260510073154 11 50 0.0 0.0 0.00 0.79 0.00 96 1014.6
20260510071652 11 50 0.0 0.0 0.00 0.79 0.00 96 1014.5
20260510070148 11 50 0.0 0.0 0.00 0.79 0.00 95 1014.4
20260510064651 11 50 0.0 0.0 0.00 0.79 0.00 96 1014.4
20260510063140 11 50 0.0 0.0 0.00 0.79 0.00 96 1014.4
20260510061651 11 50 0.0 1.6 0.00 0.79 0.00 96 1014.3
20260510060151 11 50 0.0 0.0 0.00 0.79 0.00 96 1014.2
20260510054652 11 50 0.0 0.0 0.00 0.79 0.00 96 1014.2
20260510053138 11 50 0.0 0.0 0.00 0.79 0.00 96 1014.0
20260510051651 11 50 0.0 0.0 0.00 0.79 0.00 95 1014.1
20260510050151 11 50 0.0 0.0 0.00 0.79 0.00 95 1014.0
20260510044652 11 50 0.0 0.0 0.00 0.79 0.00 95 1013.9
20260510043138 11 50 0.0 0.0 0.00 0.79 0.00 95 1014.1
20260510041651 11 50 0.0 0.0 0.00 0.79 0.00 95 1014.1
20260510034655 11 50 0.0 0.0 0.00 0.79 0.00 95 1014.2
20260510033137 11 50 0.0 0.0 0.00 0.79 0.00 95 1014.1
20260510031650 11 50 0.0 0.0 0.00 0.79 0.00 95 1014.2
20260510030149 11 50 0.0 0.0 0.00 0.79 0.00 95 1014.3
20260510024653 11 50 0.0 0.0 0.00 0.79 0.00 95 1014.3
20260510023154 11 50 0.0 0.0 0.00 0.79 0.00 95 1014.5
20260510021651 11 50 0.0 0.0 0.00 0.79 0.00 95 1014.6
20260510014651 11 52 0.0 0.0 0.00 0.79 0.00 95 1014.5
20260510013149 11 307 0.0 0.0 0.00 0.79 0.00 95 1014.3
20260510011643 12 307 0.0 0.0 0.00 0.79 0.00 95 1014.3
20260510010149 12 307 0.0 3.2 0.00 0.79 0.00 95 1014.3
20260510004650 12 67 0.0 0.0 0.00 0.79 0.00 95 1014.5
20260510003157 12 67 0.0 0.0 0.00 0.79 0.00 95 1014.5
20260510001652 12 67 0.0 0.0 0.00 0.79 0.00 95 1014.7
20260510000002 12 67 0.0 0.0 0.00 0.79 0.00 95 1014.8
20260509234651 12 67 0.0 0.0 0.00 0.79 0.00 94 1015.1
20260509233139 12 67 0.0 0.0 0.00 0.79 0.00 94 1015.1
20260509231651 12 67 0.0 0.0 0.00 0.79 0.00 94 1015.1
20260509224651 13 67 0.0 0.0 0.00 0.79 0.00 94 1015.2
20260509223157 13 67 0.0 0.0 0.00 0.79 0.00 94 1015.3
20260509221651 13 67 0.0 0.0 0.00 0.79 0.00 94 1015.0
20260509214649 13 67 0.0 0.0 0.00 0.79 0.79 94 1015.0
20260509213138 13 67 0.0 0.0 0.00 0.79 0.79 94 1015.0
20260509211650 13 67 0.0 0.0 0.00 0.79 0.79 94 1014.9
20260509204651 13 67 0.0 0.0 0.00 0.79 0.79 93 1014.7
20260509203141 13 67 0.0 0.0 0.00 0.79 0.79 93 1014.5
20260509201652 13 67 0.0 0.0 0.00 0.79 0.79 93 1014.3
20260509194651 13 67 0.0 0.0 0.00 0.79 0.79 93 1013.7
20260509193156 13 9 0.0 4.8 0.00 0.79 0.79 92 1013.3
20260509191653 14 280 0.0 3.2 0.00 0.79 0.79 92 1013.4
20260509184650 14 282 3.2 11.3 0.03 0.79 0.79 92 1012.8
20260509183155 13 284 0.0 9.7 0.05 0.79 0.79 93 1012.7
20260509181653 13 283 0.0 4.8 0.05 0.79 0.79 93 1012.4
20260509180148 13 287 4.8 12.9 0.13 0.79 0.79 93 1012.3
20260509174652 13 265 1.6 9.7 0.15 0.76 0.76 93 1012.2
20260509173157 13 273 0.0 11.3 0.18 0.71 0.71 93 1012.2
20260509171651 13 346 3.2 8.0 0.23 0.71 0.71 92 1012.4
20260509170133 13 146 0.0 1.6 0.25 0.66 0.66 92 1012.8
20260509164651 14 146 0.0 0.0 0.33 0.61 0.61 92 1013.4
20260509163137 14 146 0.0 0.0 0.43 0.53 0.53 91 1013.7
20260509161652 14 146 0.0 0.0 0.48 0.48 0.48 90 1014.2
20260509160149 14 82 0.0 6.4 0.38 0.38 0.38 89 1014.4
20260509154653 15 155 3.2 12.9 0.25 0.25 0.25 87 1014.5
20260509151650 15 191 3.2 9.7 0.00 0.00 0.00 83 1012.8
20260509144653 16 181 1.6 9.7 0.00 0.00 0.00 79 1012.1
20260509143139 16 111 3.2 9.7 0.00 0.00 0.00 78 1012.3
20260509141651 17 138 0.0 1.6 0.00 0.00 0.00 80 1012.7
20260509140148 17 140 0.0 0.0 0.00 0.00 0.00 78 1013.2
20260509134651 17 140 0.0 11.3 0.00 0.00 0.00 77 1013.5
20260509133156 17 192 0.0 0.0 0.00 0.00 0.00 77 1013.6
20260509131652 17 192 0.0 1.6 0.00 0.00 0.00 77 1013.6
20260509124652 17 192 0.0 6.4 0.00 0.00 0.00 82 1013.4
20260509123139 17 143 0.0 1.6 0.00 0.00 0.00 86 1013.1
20260509121651 17 143 0.0 0.0 0.00 0.00 0.00 85 1013.7
20260509120150 17 180 0.0 4.8 0.00 0.00 0.00 83 1014.3
20260509114651 17 116 1.6 16.1 0.00 0.00 0.00 77 1014.7
20260509113154 18 112 8.0 16.1 0.00 0.00 0.00 72 1014.8
20260509111653 18 146 1.6 12.9 0.00 0.00 0.00 72 1014.8
20260509110151 18 150 1.6 8.0 0.00 0.00 0.00 73 1014.6
20260509104651 18 169 0.0 0.0 0.00 0.00 0.00 72 1014.7
20260509103157 18 183 0.0 0.0 0.00 0.00 0.00 73 1015.0
20260509101651 18 167 0.0 0.0 0.00 0.00 0.00 72 1014.8
20260509100150 17 334 0.0 0.0 0.00 0.00 0.00 73 1014.8
20260509094651 17 355 0.0 0.0 0.00 0.00 0.00 74 1014.9
20260509093138 16 28 0.0 8.0 0.00 0.00 0.00 76 1014.9
20260509091651 16 53 1.6 6.4 0.00 0.00 0.00 77 1014.8